GFSFLT2_prec_precacc24_162.txt.gz
Total_Precipitation_Accumulation
0.00 0.00 0.00 0.01 0.01 0.00 0.00 0.00 0.00 0.00 0.00 0.00 0.00 0.00 0.00 0.00 0.00 0.00 0.00 0.00 0.00 0.00 0.00 0.00 0.00 0.01 0.01 0.01 0.01 0.01 0.08 0.31
0.00 0.00 0.00 0.00 0.02 0.01 0.00 0.00 0.00 0.00 0.00 0.00 0.00 0.00 0.00 0.00 0.00 0.00 0.00 0.00 0.00 0.00 0.00 0.00 0.01 0.02 0.01 0.05 0.08 0.01 0.07 0.21
0.00 0.00 0.00 0.00 0.00 0.00 0.00 0.00 0.00 0.00 0.00 0.00 0.00 0.00 0.00 0.00 0.00 0.00 0.00 0.00 0.00 0.00 0.00 0.00 0.00 0.01 0.03 0.14 0.13 0.02 0.07 0.07
0.00 0.01 0.01 0.00 0.00 0.00 0.00 0.00 0.00 0.00 0.00 0.00 0.01 0.01 0.00 0.00 0.00 0.00 0.00 0.00 0.00 0.00 0.00 0.00 0.00 0.00 0.05 0.15 0.07 0.04 0.04 0.04
0.00 0.02 0.04 0.03 0.02 0.02 0.02 0.01 0.02 0.02 0.00 0.01 0.02 0.02 0.02 0.01 0.01 0.00 0.00 0.00 0.00 0.00 0.00 0.00 0.00 0.00 0.01 0.02 0.02 0.03 0.04 0.04
0.01 0.10 0.20 0.12 0.09 0.12 0.08 0.07 0.05 0.04 0.03 0.02 0.04 0.03 0.03 0.01 0.02 0.01 0.01 0.00 0.00 0.00 0.00 0.00 0.00 0.00 0.00 0.00 0.00 0.01 0.05 0.05
0.00 0.06 0.20 0.15 0.13 0.12 0.10 0.13 0.16 0.15 0.09 0.06 0.07 0.10 0.07 0.04 0.02 0.01 0.01 0.01 0.00 0.00 0.00 0.00 0.00 0.00 0.00 0.00 0.00 0.00 0.03 0.04
0.00 0.00 0.07 0.13 0.08 0.08 0.10 0.12 0.14 0.16 0.14 0.10 0.08 0.08 0.10 0.08 0.07 0.03 0.01 0.01 0.01 0.01 0.00 0.00 0.00 0.00 0.00 0.00 0.00 0.00 0.01 0.02
0.00 0.00 0.00 0.03 0.07 0.07 0.07 0.10 0.14 0.15 0.10 0.10 0.13 0.11 0.15 0.16 0.13 0.08 0.04 0.02 0.04 0.08 0.02 0.01 0.00 0.01 0.00 0.00 0.00 0.00 0.02 0.02
0.00 0.00 0.00 0.00 0.03 0.07 0.13 0.11 0.15 0.20 0.12 0.13 0.25 0.21 0.23 0.29 0.24 0.13 0.09 0.09 0.11 0.13 0.06 0.03 0.02 0.04 0.01 0.01 0.01 0.00 0.01 0.00
0.00 0.00 0.00 0.00 0.02 0.09 0.20 0.23 0.26 0.20 0.16 0.13 0.11 0.17 0.29 0.37 0.28 0.13 0.15 0.14 0.16 0.26 0.18 0.15 0.08 0.06 0.05 0.09 0.05 0.01 0.01 0.00
0.00 0.00 0.00 0.00 0.00 0.01 0.05 0.25 0.39 0.35 0.24 0.18 0.16 0.14 0.19 0.25 0.23 0.19 0.25 0.29 0.22 0.25 0.33 0.33 0.25 0.24 0.24 0.16 0.15 0.06 0.03 0.02
0.00 0.00 0.00 0.00 0.00 0.00 0.00 0.00 0.01 0.17 0.36 0.16 0.07 0.14 0.21 0.17 0.12 0.11 0.22 0.24 0.25 0.41 0.54 0.58 0.31 0.41 0.61 0.48 0.36 0.21 0.14 0.02
0.00 0.00 0.00 0.00 0.00 0.00 0.00 0.00 0.02 0.07 0.09 0.09 0.09 0.12 0.49 0.38 0.31 0.26 0.23 0.16 0.27 0.61 0.63 0.84 0.57 0.76 0.82 0.88 0.54 0.42 0.22 0.18
0.00 0.00 0.00 0.00 0.00 0.00 0.02 0.03 0.10 0.14 0.11 0.16 0.16 0.21 0.18 0.53 0.30 0.47 0.57 0.62 0.39 0.61 0.83 0.85 0.62 0.79 0.96 1.03 0.94 0.58 0.32 0.35
0.00 0.00 0.00 0.00 0.00 0.01 0.04 0.02 0.01 0.00 0.00 0.02 0.07 0.18 0.28 0.54 0.69 0.62 0.69 0.83 0.86 0.76 0.93 0.96 1.08 0.84 1.05 0.94 0.81 0.70 0.64 0.39
0.00 0.00 0.00 0.00 0.00 0.03 0.04 0.11 0.16 0.09 0.07 0.02 0.02 0.04 0.10 0.19 0.51 0.54 0.65 0.79 0.74 0.89 0.86 0.97 1.14 1.43 1.52 1.59 1.54 1.42 1.45 1.37
0.01 0.02 0.04 0.04 0.05 0.08 0.10 0.13 0.16 0.12 0.15 0.19 0.20 0.18 0.20 0.30 0.41 0.40 0.45 0.57 0.57 0.79 0.81 0.82 1.07 1.34 1.60 1.96 2.10 2.09 1.96 1.86
0.05 0.07 0.08 0.14 0.17 0.16 0.19 0.29 0.30 0.27 0.23 0.24 0.34 0.58 0.69 0.79 0.72 0.74 0.65 0.76 1.01 1.03 0.99 0.96 0.96 0.95 0.94 0.93 0.94 1.09 1.38 1.84
0.15 0.14 0.14 0.16 0.16 0.16 0.21 0.18 0.20 0.18 0.23 0.20 0.19 0.24 0.31 0.54 0.63 0.70 0.93 1.10 1.20 1.44 1.34 1.07 1.01 0.76 0.66 0.76 0.81 0.78 0.82 0.90

GFSFLT2_prec_precacc24_165.txt.gz
Total_Precipitation_Accumulation
0.00 0.01 0.02 0.04 0.05 0.01 0.00 0.00 0.00 0.00 0.00 0.00 0.00 0.00 0.00 0.00 0.00 0.00 0.00 0.00 0.00 0.00 0.00 0.00 0.00 0.00 0.00 0.00 0.01 0.01 0.06 0.30
0.02 0.03 0.02 0.01 0.04 0.04 0.01 0.00 0.00 0.00 0.00 0.00 0.00 0.01 0.00 0.01 0.00 0.00 0.00 0.00 0.00 0.00 0.00 0.00 0.00 0.00 0.00 0.02 0.05 0.01 0.07 0.18
0.00 0.00 0.00 0.00 0.01 0.00 0.00 0.00 0.00 0.00 0.00 0.00 0.01 0.01 0.01 0.03 0.02 0.01 0.00 0.00 0.01 0.01 0.00 0.00 0.00 0.00 0.02 0.05 0.05 0.02 0.07 0.05
0.00 0.01 0.01 0.00 0.00 0.00 0.00 0.00 0.00 0.00 0.00 0.00 0.01 0.02 0.02 0.02 0.02 0.02 0.02 0.01 0.01 0.01 0.00 0.00 0.00 0.00 0.01 0.02 0.00 0.04 0.04 0.04
0.00 0.02 0.04 0.03 0.02 0.02 0.02 0.01 0.03 0.04 0.01 0.01 0.03 0.03 0.03 0.02 0.02 0.01 0.02 0.02 0.03 0.02 0.00 0.00 0.00 0.00 0.00 0.00 0.02 0.03 0.03 0.03
0.01 0.10 0.20 0.12 0.09 0.12 0.08 0.07 0.05 0.04 0.03 0.02 0.05 0.03 0.04 0.04 0.04 0.02 0.02 0.02 0.03 0.03 0.02 0.00 0.00 0.00 0.00 0.00 0.00 0.00 0.01 0.05
0.00 0.06 0.20 0.15 0.13 0.12 0.10 0.13 0.16 0.15 0.09 0.06 0.07 0.11 0.10 0.08 0.05 0.04 0.03 0.03 0.03 0.03 0.04 0.01 0.01 0.00 0.00 0.00 0.00 0.00 0.03 0.03
0.00 0.00 0.07 0.13 0.08 0.08 0.10 0.12 0.14 0.16 0.14 0.10 0.08 0.08 0.11 0.10 0.09 0.07 0.05 0.05 0.05 0.04 0.04 0.03 0.00 0.00 0.00 0.00 0.00 0.00 0.01 0.02
0.00 0.00 0.00 0.03 0.07 0.07 0.07 0.10 0.14 0.15 0.10 0.10 0.13 0.11 0.15 0.16 0.13 0.08 0.06 0.04 0.07 0.11 0.06 0.06 0.03 0.02 0.00 0.00 0.00 0.00 0.02 0.02
0.00 0.00 0.00 0.00 0.03 0.07 0.13 0.11 0.15 0.20 0.12 0.13 0.25 0.21 0.23 0.29 0.24 0.13 0.09 0.09 0.12 0.16 0.10 0.07 0.06 0.08 0.02 0.01 0.01 0.00 0.01 0.00
0.00 0.00 0.00 0.00 0.02 0.09 0.20 0.23 0.26 0.20 0.16 0.13 0.11 0.17 0.29 0.37 0.28 0.13 0.15 0.14 0.16 0.27 0.20 0.18 0.13 0.11 0.08 0.10 0.05 0.01 0.01 0.00
0.00 0.00 0.00 0.00 0.00 0.01 0.05 0.25 0.39 0.35 0.23 0.18 0.16 0.14 0.19 0.24 0.23 0.19 0.25 0.29 0.22 0.25 0.33 0.31 0.25 0.30 0.31 0.20 0.16 0.07 0.03 0.02
0.00 0.00 0.00 0.00 0.00 0.00 0.00 0.00 0.01 0.16 0.34 0.14 0.06 0.14 0.21 0.17 0.12 0.11 0.22 0.23 0.24 0.41 0.53 0.57 0.28 0.44 0.73 0.60 0.45 0.27 0.16 0.03
0.00 0.00 0.00 0.00 0.00 0.00 0.00 0.00 0.00 0.00 0.00 0.04 0.08 0.12 0.48 0.38 0.31 0.26 0.23 0.15 0.26 0.60 0.60 0.79 0.53 0.70 0.99 1.23 0.91 0.69 0.42 0.27
0.00 0.00 0.00 0.00 0.00 0.00 0.00 0.00 0.00 0.00 0.01 0.01 0.03 0.05 0.10 0.46 0.26 0.46 0.55 0.59 0.38 0.59 0.80 0.77 0.54 0.72 0.93 1.13 1.16 0.89 0.67 0.61
0.00 0.00 0.00 0.00 0.00 0.00 0.00 0.00 0.00 0.00 0.00 0.00 0.01 0.03 0.06 0.29 0.50 0.49 0.61 0.77 0.83 0.74 0.83 0.84 0.95 0.79 1.00 0.93 0.84 0.80 0.84 0.69
0.00 0.00 0.00 0.00 0.00 0.00 0.00 0.01 0.01 0.01 0.02 0.01 0.02 0.02 0.03 0.08 0.34 0.37 0.56 0.72 0.70 0.87 0.84 0.93 1.09 1.41 1.52 1.57 1.55 1.44 1.49 1.47
0.00 0.00 0.01 0.00 0.00 0.01 0.02 0.05 0.07 0.07 0.05 0.05 0.11 0.16 0.18 0.30 0.39 0.37 0.42 0.53 0.55 0.78 0.80 0.82 1.06 1.31 1.56 1.95 2.10 2.10 1.97 1.90
0.02 0.02 0.01 0.02 0.02 0.02 0.08 0.20 0.22 0.15 0.12 0.16 0.25 0.48 0.63 0.76 0.70 0.71 0.62 0.74 1.01 1.01 0.99 0.97 0.96 0.94 0.88 0.83 0.87 1.07 1.38 1.86
0.06 0.06 0.05 0.05 0.07 0.09 0.14 0.16 0.19 0.16 0.10 0.14 0.19 0.23 0.30 0.53 0.63 0.70 0.91 1.09 1.19 1.44 1.33 1.05 1.00 0.75 0.64 0.69 0.74 0.70 0.78 0.92

GFSFLT2_prec_precacc24_168.txt.gz
Total_Precipitation_Accumulation
0.01 0.01 0.03 0.05 0.07 0.02 0.00 0.00 0.00 0.00 0.00 0.00 0.00 0.01 0.00 0.00 0.01 0.01 0.00 0.00 0.00 0.00 0.00 0.00 0.00 0.00 0.00 0.00 0.00 0.00 0.06 0.29
0.02 0.03 0.02 0.01 0.05 0.04 0.01 0.00 0.00 0.00 0.00 0.00 0.00 0.01 0.01 0.02 0.03 0.04 0.02 0.01 0.01 0.00 0.00 0.00 0.00 0.00 0.00 0.00 0.00 0.00 0.07 0.18
0.00 0.00 0.00 0.00 0.01 0.00 0.00 0.00 0.00 0.00 0.00 0.00 0.01 0.01 0.01 0.04 0.06 0.03 0.02 0.02 0.04 0.02 0.00 0.00 0.00 0.00 0.00 0.00 0.00 0.00 0.07 0.05
0.00 0.01 0.01 0.00 0.00 0.00 0.00 0.00 0.00 0.00 0.00 0.00 0.01 0.02 0.04 0.05 0.03 0.02 0.03 0.02 0.03 0.02 0.00 0.00 0.00 0.00 0.00 0.00 0.00 0.02 0.02 0.03
0.00 0.02 0.04 0.03 0.02 0.02 0.02 0.01 0.02 0.04 0.01 0.01 0.03 0.03 0.03 0.06 0.06 0.07 0.07 0.05 0.09 0.08 0.05 0.05 0.03 0.01 0.00 0.00 0.00 0.00 0.01 0.03
0.01 0.10 0.20 0.12 0.09 0.12 0.08 0.07 0.05 0.04 0.03 0.02 0.05 0.03 0.03 0.04 0.04 0.03 0.06 0.07 0.10 0.13 0.12 0.07 0.04 0.04 0.03 0.01 0.00 0.00 0.01 0.04
0.00 0.06 0.20 0.15 0.13 0.12 0.10 0.13 0.16 0.15 0.09 0.06 0.07 0.11 0.10 0.08 0.05 0.04 0.04 0.04 0.06 0.11 0.15 0.10 0.06 0.03 0.04 0.03 0.01 0.00 0.02 0.03
0.00 0.00 0.07 0.13 0.08 0.08 0.10 0.12 0.14 0.16 0.14 0.10 0.08 0.08 0.11 0.10 0.09 0.07 0.05 0.05 0.05 0.06 0.07 0.08 0.06 0.05 0.04 0.04 0.03 0.01 0.02 0.02
0.00 0.00 0.00 0.03 0.07 0.07 0.07 0.10 0.14 0.15 0.10 0.10 0.13 0.11 0.15 0.16 0.13 0.08 0.06 0.04 0.07 0.11 0.06 0.07 0.07 0.08 0.05 0.05 0.06 0.03 0.04 0.02
0.00 0.00 0.00 0.00 0.03 0.07 0.13 0.11 0.15 0.20 0.12 0.13 0.25 0.21 0.23 0.28 0.24 0.13 0.09 0.09 0.12 0.16 0.10 0.07 0.07 0.11 0.06 0.05 0.08 0.07 0.05 0.03
0.00 0.00 0.00 0.00 0.02 0.09 0.20 0.23 0.26 0.20 0.16 0.13 0.11 0.17 0.29 0.37 0.28 0.13 0.15 0.14 0.16 0.27 0.20 0.18 0.13 0.11 0.09 0.12 0.08 0.05 0.05 0.06
0.00 0.00 0.00 0.00 0.00 0.01 0.05 0.25 0.39 0.35 0.23 0.18 0.16 0.14 0.19 0.24 0.23 0.19 0.24 0.28 0.21 0.24 0.33 0.31 0.24 0.30 0.31 0.20 0.16 0.08 0.05 0.06
0.00 0.00 0.00 0.00 0.00 0.00 0.00 0.00 0.01 0.16 0.34 0.13 0.06 0.14 0.21 0.16 0.11 0.10 0.21 0.23 0.24 0.41 0.52 0.57 0.28 0.43 0.73 0.60 0.45 0.27 0.19 0.08
0.00 0.00 0.00 0.00 0.00 0.00 0.00 0.00 0.00 0.00 0.00 0.03 0.07 0.12 0.48 0.37 0.30 0.26 0.22 0.14 0.25 0.57 0.58 0.77 0.51 0.66 0.97 1.22 0.90 0.68 0.42 0.33
0.00 0.00 0.00 0.00 0.00 0.00 0.00 0.00 0.00 0.00 0.00 0.00 0.02 0.05 0.10 0.43 0.22 0.41 0.52 0.55 0.33 0.55 0.75 0.74 0.51 0.66 0.89 1.13 1.16 0.89 0.67 0.62
0.00 0.00 0.00 0.00 0.00 0.00 0.00 0.00 0.00 0.00 0.00 0.00 0.00 0.02 0.06 0.23 0.40 0.32 0.36 0.49 0.69 0.68 0.77 0.79 0.90 0.76 0.92 0.91 0.86 0.82 0.86 0.69
0.00 0.00 0.00 0.00 0.00 0.00 0.00 0.00 0.00 0.00 0.00 0.00 0.00 0.01 0.03 0.07 0.33 0.27 0.32 0.51 0.57 0.78 0.79 0.87 1.07 1.39 1.48 1.56 1.55 1.45 1.50 1.48
0.00 0.00 0.00 0.00 0.00 0.00 0.00 0.00 0.00 0.01 0.01 0.02 0.02 0.03 0.07 0.13 0.28 0.34 0.40 0.49 0.49 0.71 0.74 0.77 1.02 1.27 1.54 1.93 2.10 2.12 1.99 1.92
0.00 0.00 0.00 0.01 0.01 0.01 0.01 0.02 0.04 0.07 0.07 0.10 0.13 0.17 0.17 0.28 0.33 0.50 0.56 0.72 0.99 0.99 0.97 0.94 0.91 0.90 0.85 0.82 0.87 1.07 1.37 1.86
0.01 0.01 0.01 0.00 0.01 0.03 0.05 0.03 0.05 0.09 0.09 0.12 0.17 0.21 0.23 0.36 0.36 0.40 0.71 1.02 1.15 1.42 1.30 1.03 0.97 0.72 0.62 0.68 0.74 0.69 0.75 0.88

GFSFLT2_prec_precacc24_174.txt.gz
Total_Precipitation_Accumulation
0.01 0.01 0.03 0.05 0.07 0.02 0.00 0.00 0.00 0.00 0.00 0.00 0.00 0.01 0.04 0.01 0.07 0.03 0.02 0.01 0.01 0.01 0.01 0.00 0.00 0.00 0.00 0.00 0.00 0.00 0.01 0.16
0.03 0.03 0.02 0.01 0.05 0.04 0.01 0.00 0.00 0.00 0.00 0.00 0.01 0.06 0.08 0.13 0.10 0.07 0.04 0.02 0.01 0.01 0.01 0.00 0.00 0.00 0.00 0.00 0.00 0.00 0.00 0.01
0.00 0.00 0.00 0.00 0.01 0.00 0.00 0.00 0.00 0.00 0.00 0.00 0.02 0.03 0.04 0.08 0.15 0.06 0.03 0.03 0.04 0.02 0.01 0.02 0.00 0.00 0.00 0.00 0.00 0.00 0.00 0.01
0.00 0.01 0.01 0.00 0.00 0.00 0.00 0.00 0.00 0.00 0.00 0.00 0.01 0.04 0.06 0.08 0.09 0.09 0.09 0.12 0.12 0.12 0.07 0.08 0.08 0.03 0.01 0.06 0.01 0.00 0.01 0.01
0.00 0.02 0.04 0.03 0.02 0.02 0.02 0.01 0.02 0.04 0.01 0.01 0.03 0.03 0.03 0.06 0.06 0.08 0.08 0.09 0.13 0.15 0.11 0.14 0.17 0.15 0.05 0.17 0.14 0.07 0.20 0.32
0.01 0.10 0.20 0.12 0.09 0.12 0.08 0.07 0.05 0.04 0.03 0.02 0.04 0.03 0.03 0.04 0.04 0.03 0.06 0.07 0.11 0.16 0.14 0.13 0.10 0.13 0.13 0.04 0.04 0.04 0.03 0.04
0.00 0.06 0.20 0.15 0.13 0.12 0.10 0.13 0.16 0.15 0.09 0.06 0.07 0.11 0.10 0.08 0.05 0.04 0.04 0.04 0.06 0.11 0.15 0.11 0.08 0.07 0.12 0.11 0.12 0.09 0.05 0.03
0.00 0.00 0.07 0.13 0.08 0.08 0.10 0.12 0.14 0.16 0.14 0.10 0.08 0.08 0.11 0.09 0.09 0.07 0.04 0.05 0.05 0.06 0.07 0.08 0.06 0.06 0.07 0.12 0.13 0.11 0.09 0.08
0.00 0.00 0.00 0.03 0.07 0.07 0.07 0.10 0.14 0.15 0.10 0.10 0.13 0.11 0.15 0.16 0.13 0.08 0.06 0.04 0.07 0.11 0.06 0.07 0.07 0.08 0.06 0.07 0.11 0.11 0.11 0.05
0.00 0.00 0.00 0.00 0.01 0.03 0.12 0.11 0.15 0.20 0.12 0.13 0.25 0.21 0.23 0.28 0.24 0.13 0.09 0.09 0.12 0.16 0.10 0.07 0.07 0.11 0.06 0.05 0.08 0.09 0.10 0.11
0.00 0.00 0.00 0.00 0.00 0.00 0.05 0.20 0.26 0.20 0.16 0.13 0.11 0.17 0.29 0.37 0.28 0.13 0.14 0.14 0.16 0.27 0.20 0.18 0.13 0.11 0.09 0.12 0.08 0.05 0.05 0.09
0.00 0.00 0.00 0.00 0.00 0.00 0.00 0.11 0.36 0.35 0.23 0.18 0.16 0.14 0.18 0.24 0.23 0.19 0.24 0.27 0.21 0.24 0.33 0.31 0.24 0.30 0.31 0.19 0.16 0.08 0.05 0.06
0.00 0.00 0.00 0.00 0.00 0.00 0.00 0.00 0.01 0.16 0.34 0.13 0.06 0.13 0.19 0.16 0.11 0.10 0.20 0.22 0.23 0.38 0.52 0.56 0.27 0.43 0.71 0.51 0.38 0.26 0.18 0.07
0.00 0.00 0.00 0.00 0.00 0.00 0.00 0.00 0.00 0.00 0.00 0.03 0.07 0.11 0.37 0.31 0.30 0.25 0.21 0.13 0.23 0.52 0.55 0.76 0.49 0.64 0.96 1.12 0.84 0.66 0.41 0.33
0.00 0.00 0.00 0.00 0.00 0.00 0.00 0.00 0.00 0.00 0.00 0.00 0.02 0.05 0.08 0.30 0.19 0.37 0.50 0.51 0.31 0.52 0.72 0.70 0.48 0.62 0.85 1.10 1.17 0.88 0.66 0.62
0.00 0.00 0.00 0.00 0.00 0.00 0.00 0.00 0.00 0.00 0.00 0.00 0.00 0.02 0.05 0.18 0.31 0.27 0.32 0.44 0.51 0.48 0.64 0.69 0.77 0.64 0.76 0.75 0.75 0.76 0.79 0.63
0.00 0.00 0.00 0.00 0.00 0.00 0.00 0.00 0.00 0.00 0.00 0.00 0.00 0.00 0.00 0.03 0.21 0.17 0.18 0.36 0.42 0.49 0.54 0.64 0.79 1.06 1.20 1.32 1.38 1.29 1.30 1.28
0.00 0.00 0.00 0.00 0.00 0.00 0.00 0.00 0.00 0.00 0.00 0.00 0.00 0.00 0.02 0.04 0.14 0.15 0.17 0.25 0.27 0.47 0.56 0.63 0.75 0.99 1.31 1.75 2.02 2.07 1.95 1.85
0.00 0.00 0.00 0.00 0.00 0.00 0.00 0.00 0.00 0.00 0.00 0.00 0.00 0.00 0.02 0.04 0.08 0.16 0.17 0.15 0.27 0.30 0.48 0.57 0.57 0.61 0.64 0.71 0.81 1.01 1.26 1.71
0.00 0.00 0.00 0.00 0.00 0.00 0.00 0.00 0.00 0.00 0.00 0.01 0.01 0.02 0.01 0.02 0.03 0.10 0.15 0.15 0.22 0.30 0.32 0.31 0.35 0.43 0.45 0.57 0.67 0.65 0.69 0.75

GFSFLT2_prec_precacc24_177.txt.gz
Total_Precipitation_Accumulation
0.01 0.01 0.03 0.05 0.07 0.02 0.00 0.00 0.00 0.00 0.00 0.00 0.00 0.01 0.04 0.01 0.07 0.04 0.02 0.01 0.01 0.01 0.01 0.00 0.00 0.00 0.00 0.00 0.00 0.00 0.00 0.00
0.03 0.03 0.02 0.01 0.05 0.04 0.01 0.00 0.00 0.00 0.00 0.00 0.01 0.06 0.08 0.13 0.10 0.07 0.04 0.02 0.01 0.01 0.01 0.00 0.00 0.00 0.00 0.00 0.00 0.00 0.00 0.00
0.00 0.00 0.00 0.00 0.01 0.00 0.00 0.00 0.00 0.00 0.00 0.00 0.02 0.03 0.04 0.08 0.15 0.06 0.03 0.03 0.04 0.02 0.01 0.02 0.00 0.00 0.00 0.00 0.00 0.00 0.01 0.00
0.00 0.01 0.01 0.00 0.00 0.00 0.00 0.00 0.00 0.00 0.00 0.00 0.01 0.04 0.06 0.08 0.09 0.09 0.09 0.12 0.12 0.12 0.07 0.08 0.08 0.03 0.01 0.07 0.01 0.02 0.10 0.08
0.00 0.01 0.04 0.03 0.02 0.02 0.02 0.01 0.02 0.04 0.01 0.01 0.03 0.03 0.03 0.06 0.06 0.08 0.08 0.09 0.13 0.15 0.11 0.14 0.17 0.15 0.05 0.18 0.14 0.08 0.29 0.54
0.00 0.01 0.10 0.11 0.09 0.12 0.08 0.07 0.05 0.04 0.03 0.02 0.04 0.03 0.03 0.04 0.04 0.03 0.06 0.07 0.11 0.16 0.14 0.13 0.10 0.13 0.13 0.04 0.04 0.04 0.05 0.10
0.00 0.00 0.00 0.02 0.09 0.12 0.10 0.13 0.16 0.15 0.09 0.06 0.07 0.11 0.10 0.08 0.05 0.04 0.04 0.04 0.06 0.11 0.15 0.11 0.08 0.07 0.12 0.11 0.12 0.09 0.04 0.04
0.00 0.00 0.00 0.00 0.02 0.04 0.08 0.10 0.14 0.16 0.14 0.10 0.08 0.08 0.11 0.09 0.09 0.07 0.04 0.05 0.05 0.06 0.07 0.08 0.06 0.06 0.07 0.12 0.13 0.11 0.09 0.06
0.00 0.00 0.00 0.00 0.00 0.00 0.00 0.02 0.08 0.12 0.10 0.10 0.13 0.11 0.15 0.16 0.13 0.08 0.06 0.04 0.07 0.11 0.06 0.07 0.07 0.08 0.06 0.07 0.11 0.11 0.11 0.05
0.00 0.00 0.00 0.00 0.00 0.00 0.00 0.00 0.01 0.04 0.09 0.12 0.23 0.21 0.23 0.28 0.24 0.13 0.09 0.09 0.12 0.16 0.10 0.07 0.07 0.11 0.06 0.05 0.08 0.09 0.10 0.11
0.00 0.00 0.00 0.00 0.00 0.00 0.00 0.00 0.00 0.01 0.05 0.07 0.08 0.14 0.27 0.37 0.28 0.13 0.14 0.14 0.16 0.27 0.20 0.18 0.13 0.11 0.09 0.11 0.07 0.05 0.05 0.09
0.00 0.00 0.00 0.00 0.00 0.00 0.00 0.00 0.00 0.00 0.01 0.02 0.05 0.06 0.12 0.19 0.21 0.19 0.23 0.26 0.21 0.23 0.32 0.31 0.24 0.30 0.31 0.18 0.14 0.08 0.05 0.06
0.00 0.00 0.00 0.00 0.00 0.00 0.00 0.00 0.00 0.00 0.00 0.00 0.00 0.01 0.02 0.07 0.08 0.08 0.16 0.21 0.23 0.23 0.42 0.53 0.26 0.43 0.66 0.47 0.35 0.25 0.18 0.07
0.00 0.00 0.00 0.00 0.00 0.00 0.00 0.00 0.00 0.00 0.00 0.00 0.00 0.01 0.06 0.11 0.16 0.16 0.15 0.11 0.19 0.28 0.35 0.63 0.45 0.61 0.88 0.97 0.76 0.63 0.41 0.33
0.00 0.00 0.00 0.00 0.00 0.00 0.00 0.00 0.00 0.00 0.00 0.00 0.00 0.00 0.01 0.04 0.10 0.17 0.19 0.27 0.15 0.27 0.42 0.51 0.37 0.53 0.74 1.03 1.09 0.86 0.64 0.61
0.00 0.00 0.00 0.00 0.00 0.00 0.00 0.00 0.00 0.00 0.00 0.00 0.00 0.00 0.00 0.01 0.04 0.13 0.18 0.23 0.27 0.30 0.46 0.52 0.59 0.47 0.53 0.60 0.64 0.73 0.77 0.61
0.00 0.00 0.00 0.00 0.00 0.00 0.00 0.00 0.00 0.00 0.00 0.00 0.00 0.00 0.00 0.00 0.00 0.03 0.09 0.17 0.21 0.27 0.29 0.40 0.61 0.92 1.03 1.01 1.03 1.03 1.11 1.15
0.00 0.00 0.00 0.00 0.00 0.00 0.00 0.00 0.00 0.00 0.00 0.00 0.00 0.00 0.00 0.00 0.00 0.00 0.01 0.05 0.09 0.13 0.24 0.31 0.34 0.48 0.85 1.36 1.59 1.62 1.61 1.62
0.00 0.00 0.00 0.00 0.00 0.00 0.00 0.00 0.00 0.00 0.00 0.00 0.00 0.00 0.00 0.00 0.00 0.00 0.00 0.01 0.04 0.12 0.17 0.28 0.24 0.23 0.30 0.46 0.63 0.87 1.10 1.57
0.00 0.00 0.00 0.00 0.00 0.00 0.00 0.00 0.00 0.00 0.00 0.00 0.00 0.01 0.01 0.01 0.01 0.01 0.01 0.02 0.04 0.11 0.13 0.11 0.16 0.23 0.21 0.25 0.37 0.41 0.49 0.59

GFSFLT2_prec_precacc24_183.txt.gz
Total_Precipitation_Accumulation
0.01 0.01 0.03 0.05 0.07 0.02 0.00 0.00 0.00 0.00 0.00 0.00 0.00 0.01 0.04 0.01 0.07 0.04 0.02 0.01 0.01 0.01 0.01 0.00 0.00 0.00 0.00 0.00 0.00 0.00 0.00 0.00
0.03 0.03 0.02 0.01 0.05 0.04 0.01 0.00 0.00 0.00 0.00 0.00 0.01 0.06 0.08 0.13 0.10 0.07 0.04 0.02 0.01 0.01 0.01 0.00 0.00 0.00 0.00 0.00 0.00 0.00 0.00 0.00
0.00 0.00 0.00 0.00 0.01 0.00 0.00 0.00 0.00 0.00 0.00 0.00 0.02 0.03 0.04 0.08 0.15 0.06 0.03 0.03 0.04 0.02 0.01 0.02 0.00 0.00 0.00 0.00 0.00 0.00 0.01 0.00
0.00 0.00 0.00 0.00 0.00 0.00 0.00 0.00 0.00 0.00 0.00 0.00 0.01 0.04 0.06 0.08 0.09 0.09 0.09 0.12 0.12 0.12 0.07 0.08 0.08 0.03 0.01 0.07 0.01 0.02 0.10 0.08
0.00 0.00 0.00 0.00 0.00 0.00 0.01 0.01 0.02 0.04 0.01 0.01 0.03 0.03 0.03 0.06 0.06 0.08 0.08 0.09 0.13 0.15 0.11 0.14 0.17 0.15 0.05 0.18 0.14 0.08 0.29 0.54
0.00 0.00 0.00 0.00 0.00 0.00 0.00 0.00 0.01 0.03 0.03 0.02 0.04 0.03 0.03 0.04 0.04 0.03 0.06 0.07 0.11 0.16 0.14 0.13 0.10 0.13 0.13 0.04 0.04 0.04 0.05 0.10
0.00 0.00 0.00 0.00 0.00 0.00 0.00 0.00 0.01 0.01 0.03 0.03 0.05 0.10 0.10 0.08 0.05 0.04 0.04 0.04 0.06 0.11 0.15 0.11 0.08 0.07 0.12 0.11 0.12 0.09 0.04 0.04
0.00 0.00 0.00 0.00 0.00 0.00 0.00 0.00 0.00 0.00 0.00 0.02 0.04 0.06 0.09 0.09 0.08 0.07 0.04 0.05 0.05 0.06 0.07 0.08 0.06 0.06 0.07 0.12 0.13 0.11 0.09 0.06
0.00 0.00 0.00 0.00 0.00 0.00 0.00 0.00 0.00 0.00 0.00 0.00 0.01 0.02 0.04 0.08 0.09 0.07 0.06 0.04 0.05 0.10 0.06 0.07 0.07 0.08 0.06 0.07 0.11 0.11 0.11 0.05
0.00 0.00 0.00 0.00 0.00 0.00 0.00 0.00 0.00 0.00 0.00 0.00 0.00 0.00 0.00 0.03 0.09 0.10 0.06 0.06 0.06 0.08 0.06 0.06 0.07 0.11 0.06 0.05 0.08 0.09 0.10 0.11
0.00 0.00 0.00 0.00 0.00 0.00 0.00 0.00 0.00 0.00 0.00 0.00 0.00 0.00 0.00 0.00 0.01 0.04 0.04 0.06 0.08 0.10 0.10 0.10 0.09 0.08 0.07 0.08 0.07 0.05 0.05 0.09
0.00 0.00 0.00 0.00 0.00 0.00 0.00 0.00 0.00 0.00 0.00 0.00 0.00 0.00 0.00 0.00 0.00 0.00 0.03 0.05 0.09 0.12 0.16 0.16 0.14 0.16 0.18 0.09 0.08 0.05 0.04 0.06
0.00 0.00 0.00 0.00 0.00 0.00 0.00 0.00 0.00 0.00 0.00 0.00 0.00 0.00 0.00 0.00 0.00 0.00 0.01 0.02 0.04 0.07 0.11 0.14 0.12 0.20 0.31 0.20 0.14 0.14 0.11 0.07
0.00 0.00 0.00 0.00 0.00 0.00 0.00 0.00 0.00 0.00 0.00 0.00 0.00 0.00 0.00 0.00 0.00 0.00 0.00 0.00 0.01 0.02 0.03 0.07 0.16 0.27 0.40 0.46 0.43 0.32 0.24 0.19
0.00 0.00 0.00 0.00 0.00 0.00 0.00 0.00 0.00 0.00 0.00 0.00 0.00 0.00 0.00 0.00 0.00 0.00 0.00 0.00 0.00 0.01 0.01 0.02 0.05 0.14 0.28 0.58 0.79 0.70 0.44 0.31
0.00 0.00 0.00 0.00 0.00 0.00 0.00 0.00 0.00 0.00 0.00 0.00 0.00 0.00 0.00 0.00 0.00 0.00 0.00 0.00 0.01 0.00 0.01 0.02 0.03 0.04 0.09 0.15 0.22 0.33 0.42 0.38
0.00 0.00 0.00 0.00 0.00 0.00 0.00 0.00 0.00 0.00 0.00 0.00 0.00 0.00 0.00 0.00 0.00 0.00 0.00 0.00 0.01 0.01 0.01 0.02 0.04 0.06 0.08 0.23 0.29 0.31 0.36 0.40
0.00 0.00 0.00 0.00 0.00 0.00 0.00 0.00 0.00 0.00 0.00 0.00 0.00 0.00 0.00 0.00 0.00 0.00 0.00 0.01 0.01 0.01 0.02 0.04 0.05 0.04 0.04 0.08 0.26 0.50 0.78 1.00
0.00 0.00 0.00 0.00 0.00 0.00 0.00 0.00 0.00 0.00 0.00 0.00 0.00 0.00 0.00 0.00 0.00 0.00 0.00 0.00 0.01 0.02 0.06 0.05 0.02 0.02 0.01 0.04 0.09 0.18 0.36 0.64
0.00 0.00 0.00 0.00 0.00 0.00 0.00 0.00 0.00 0.00 0.00 0.00 0.00 0.00 0.00 0.00 0.01 0.01 0.01 0.01 0.01 0.04 0.02 0.01 0.01 0.01 0.01 0.02 0.05 0.06 0.13 0.22